When you browse on this site, cookies collect data to enhance your experience and personalize the content and advertising you see.
Visit our Privacy Policy to learn more. By continuing to use the site, you agree to this use of cookies and data.
  • In Romania
  • List of Countries
  • For 7 days
  • Water Temperature
  • Weather Map
  • Weather Widgets
  • user-avatar
    Login

    Hourly Weather Inverness

    Today, 18 October, Friday

    Time Temperature Precipitation Wind Pressure Humidity
    00:00 +8°C° 0 mm 1 mps 743 mmHg 93%
    01:00 +8°C° 0.2 mm 1 mps 742 mmHg 94%
    02:00 +8°C° 0.2 mm 1 mps 742 mmHg 94%
    03:00 +7°C° 0.2 mm 2 mps 742 mmHg 95%
    04:00 +8°C° 0.2 mm 1 mps 742 mmHg 95%
    05:00 +8°C° 0.2 mm 1 mps 742 mmHg 96%
    06:00 +8°C° 0 mm 1 mps 742 mmHg 97%
    07:00 +8°C° 0 mm 1 mps 742 mmHg 95%
    08:00 +9°C° 0 mm 1 mps 742 mmHg 93%
    09:00 +8°C° 0 mm 0 mps 742 mmHg 92%
    10:00 +10°C° 0 mm 1 mps 742 mmHg 88%
    11:00 +11°C° 0 mm 1 mps 742 mmHg 85%
    12:00 +12°C° 0 mm 1 mps 742 mmHg 82%
    13:00 +12°C° 0.2 mm 1 mps 742 mmHg 84%
    14:00 +10°C° 0.2 mm 2 mps 742 mmHg 86%
    15:00 +10°C° 0.2 mm 2 mps 742 mmHg 88%
    16:00 +10°C° 0.5 mm 2 mps 742 mmHg 91%
    17:00 +9°C° 0.5 mm 2 mps 742 mmHg 93%
    18:00 +9°C° 0.5 mm 3 mps 742 mmHg 96%
    19:00 +9°C° 0.5 mm 3 mps 743 mmHg 96%
    20:00 +9°C° 0.5 mm 3 mps 743 mmHg 96%
    21:00 +9°C° 0.5 mm 3 mps 743 mmHg 96%
    22:00 +8°C° 0.3 mm 4 mps 743 mmHg 95%
    23:00 +8°C° 0.3 mm 4 mps 744 mmHg 95%

    Tomorrow, 19 October, Saturday

    Time Temperature Precipitation Wind Pressure Humidity
    00:00 +8°C° 0.3 mm 4 mps 744 mmHg 95%
    01:00 +8°C° 0.3 mm 4 mps 744 mmHg 95%
    02:00 +8°C° 0.3 mm 4 mps 744 mmHg 95%
    03:00 +8°C° 0.3 mm 4 mps 744 mmHg 94%
    04:00 +8°C° 0.2 mm 4 mps 745 mmHg 94%
    05:00 +8°C° 0.2 mm 4 mps 745 mmHg 94%
    06:00 +7°C° 0.2 mm 4 mps 746 mmHg 93%
    07:00 +7°C° 0.1 mm 4 mps 746 mmHg 93%
    08:00 +8°C° 0.1 mm 3 mps 746 mmHg 92%
    09:00 +8°C° 0.1 mm 3 mps 747 mmHg 91%
    10:00 +9°C° 0.1 mm 3 mps 747 mmHg 88%
    11:00 +8°C° 0.1 mm 4 mps 747 mmHg 85%
    12:00 +10°C° 0.1 mm 4 mps 748 mmHg 81%
    13:00 +10°C° 0.1 mm 4 mps 748 mmHg 81%
    14:00 +10°C° 0.1 mm 4 mps 749 mmHg 81%
    15:00 +10°C° 0.1 mm 4 mps 749 mmHg 80%
    16:00 +8°C° 0.2 mm 4 mps 749 mmHg 84%
    17:00 +8°C° 0.2 mm 3 mps 750 mmHg 88%
    18:00 +7°C° 0.2 mm 3 mps 751 mmHg 92%
    19:00 +7°C° 0.2 mm 3 mps 751 mmHg 92%
    20:00 +7°C° 0.2 mm 3 mps 752 mmHg 92%
    21:00 +7°C° 0.2 mm 3 mps 753 mmHg 91%
    22:00 +7°C° 0.2 mm 3 mps 753 mmHg 91%
    23:00 +5°C° 0.2 mm 4 mps 754 mmHg 90%

    Day after tomorrow, 20 October, Sunday

    Time Temperature Precipitation Wind Pressure Humidity
    00:00 +5°C° 0.2 mm 4 mps 754 mmHg 90%
    01:00 +5°C° 0.1 mm 4 mps 754 mmHg 89%
    02:00 +5°C° 0.1 mm 4 mps 755 mmHg 88%
    03:00 +5°C° 0.1 mm 4 mps 755 mmHg 87%
    04:00 +5°C° 0.1 mm 4 mps 755 mmHg 87%
    05:00 +4°C° 0.1 mm 4 mps 756 mmHg 87%
    06:00 +4°C° 0.1 mm 4 mps 756 mmHg 87%
    07:00 +4°C° 0.1 mm 4 mps 757 mmHg 86%
    08:00 +4°C° 0.1 mm 4 mps 757 mmHg 85%
    09:00 +5°C° 0.1 mm 5 mps 757 mmHg 84%
    10:00 +5°C° 0 mm 5 mps 758 mmHg 82%
    11:00 +5°C° 0 mm 5 mps 758 mmHg 79%
    12:00 +6°C° 0 mm 5 mps 759 mmHg 76%
    13:00 +6°C° 0 mm 5 mps 759 mmHg 75%
    14:00 +6°C° 0 mm 5 mps 759 mmHg 75%
    15:00 +5°C° 0 mm 4 mps 760 mmHg 74%
    16:00 +5°C° 0 mm 4 mps 760 mmHg 75%
    17:00 +5°C° 0 mm 3 mps 761 mmHg 76%
    18:00 +4°C° 0 mm 3 mps 761 mmHg 77%
    19:00 +4°C° 0 mm 3 mps 762 mmHg 77%
    20:00 +5°C° 0 mm 2 mps 762 mmHg 78%
    21:00 +5°C° 0 mm 2 mps 762 mmHg 78%
    22:00 +5°C° 0 mm 2 mps 762 mmHg 77%
    23:00 +5°C° 0 mm 2 mps 762 mmHg 76%

    21 October, Monday

    Time Temperature Precipitation Wind Pressure Humidity
    00:00 +5°C° 0 mm 2 mps 763 mmHg 76%
    01:00 +5°C° 0 mm 1 mps 763 mmHg 76%
    02:00 +5°C° 0 mm 1 mps 763 mmHg 77%
    03:00 +5°C° 0 mm 1 mps 763 mmHg 78%
    04:00 +4°C° 0 mm 1 mps 763 mmHg 80%
    05:00 +3°C° 0 mm 2 mps 763 mmHg 81%
    06:00 +2°C° 0 mm 2 mps 763 mmHg 83%
    07:00 +3°C° 0 mm 2 mps 763 mmHg 80%
    08:00 +4°C° 0 mm 2 mps 763 mmHg 77%
    09:00 +5°C° 0 mm 2 mps 763 mmHg 75%
    10:00 +5°C° 0 mm 3 mps 763 mmHg 72%
    11:00 +7°C° 0 mm 3 mps 763 mmHg 70%
    12:00 +8°C° 0 mm 3 mps 763 mmHg 68%
    13:00 +8°C° 0 mm 3 mps 762 mmHg 70%
    14:00 +8°C° 0 mm 3 mps 762 mmHg 71%
    15:00 +8°C° 0 mm 3 mps 762 mmHg 73%
    16:00 +8°C° 0 mm 3 mps 762 mmHg 77%
    17:00 +7°C° 0 mm 3 mps 762 mmHg 80%
    18:00 +5°C° 0 mm 3 mps 762 mmHg 84%
    19:00 +5°C° 0 mm 3 mps 762 mmHg 85%
    20:00 +5°C° 0 mm 3 mps 762 mmHg 86%
    21:00 +5°C° 0 mm 4 mps 761 mmHg 86%
    22:00 +5°C° 0 mm 4 mps 761 mmHg 87%
    23:00 +5°C° 0 mm 4 mps 761 mmHg 88%

    22 October, Tuesday

    Time Temperature Precipitation Wind Pressure Humidity
    00:00 +5°C° 0 mm 4 mps 761 mmHg 88%
    01:00 +5°C° 0 mm 4 mps 760 mmHg 87%
    02:00 +5°C° 0 mm 4 mps 760 mmHg 87%
    03:00 +5°C° 0 mm 4 mps 760 mmHg 86%
    04:00 +6°C° 0 mm 5 mps 759 mmHg 85%
    05:00 +6°C° 0 mm 5 mps 759 mmHg 84%
    06:00 +6°C° 0 mm 5 mps 759 mmHg 83%
    07:00 +7°C° 0 mm 5 mps 759 mmHg 82%
    08:00 +7°C° 0 mm 5 mps 759 mmHg 81%
    09:00 +7°C° 0 mm 5 mps 759 mmHg 80%
    10:00 +7°C° 0.1 mm 5 mps 758 mmHg 79%
    11:00 +7°C° 0.1 mm 5 mps 758 mmHg 78%
    12:00 +7°C° 0.1 mm 5 mps 758 mmHg 78%
    13:00 +7°C° 0 mm 5 mps 758 mmHg 77%
    14:00 +7°C° 0 mm 5 mps 757 mmHg 77%
    15:00 +8°C° 0 mm 5 mps 757 mmHg 77%
    16:00 +7°C° 0 mm 5 mps 756 mmHg 78%
    17:00 +7°C° 0 mm 4 mps 756 mmHg 80%
    18:00 +6°C° 0 mm 4 mps 756 mmHg 81%
    19:00 +6°C° 0 mm 4 mps 756 mmHg 81%
    20:00 +6°C° 0 mm 4 mps 756 mmHg 81%
    21:00 +6°C° 0 mm 4 mps 756 mmHg 82%
    22:00 +6°C° 0.1 mm 4 mps 755 mmHg 83%
    23:00 +6°C° 0.1 mm 4 mps 755 mmHg 85%

    23 October, Wednesday

    Time Temperature Precipitation Wind Pressure Humidity
    00:00 +6°C° 0.1 mm 4 mps 755 mmHg 86%
    01:00 +7°C° 0 mm 3 mps 754 mmHg 87%
    02:00 +7°C° 0 mm 3 mps 754 mmHg 89%
    03:00 +5°C° 0 mm 3 mps 753 mmHg 90%
    04:00 +5°C° 0 mm 3 mps 753 mmHg 89%
    05:00 +7°C° 0 mm 3 mps 753 mmHg 89%
    06:00 +7°C° 0 mm 3 mps 752 mmHg 88%
    07:00 +7°C° 0.2 mm 3 mps 752 mmHg 87%
    08:00 +7°C° 0.2 mm 3 mps 752 mmHg 87%
    09:00 +8°C° 0.2 mm 3 mps 751 mmHg 86%
    10:00 +8°C° 0 mm 4 mps 751 mmHg 83%
    11:00 +8°C° 0 mm 4 mps 750 mmHg 79%
    12:00 +9°C° 0 mm 5 mps 750 mmHg 76%
    13:00 +9°C° 0 mm 5 mps 749 mmHg 77%
    14:00 +10°C° 0 mm 4 mps 749 mmHg 77%
    15:00 +10°C° 0 mm 4 mps 748 mmHg 78%
    16:00 +10°C° 0 mm 3 mps 748 mmHg 82%
    17:00 +9°C° 0 mm 3 mps 747 mmHg 86%
    18:00 +9°C° 0 mm 3 mps 747 mmHg 90%
    19:00 +9°C° 0.1 mm 3 mps 747 mmHg 90%
    20:00 +9°C° 0.1 mm 3 mps 747 mmHg 91%
    21:00 +9°C° 0.1 mm 2 mps 747 mmHg 91%
    22:00 +9°C° 0.1 mm 3 mps 747 mmHg 92%
    23:00 +10°C° 0.1 mm 3 mps 746 mmHg 92%
    Show more